Data No.,UTC Date,UTC Time,Latitude,Longitude,Course(deg),Temp(degC),Sal(psu)
21,2006/11/1,4:33:00,33-54.6000N,137-10.3100E,167,22.137,33.9661
22,2006/11/1,4:34:00,33-54.3700N,137-10.3700E,167,22.125,33.9592
23,2006/11/1,4:35:00,33-54.1300N,137-10.4400E,167,22.108,33.9567
24,2006/11/1,4:36:00,33-53.8900N,137-10.5000E,167,22.099,33.9674
25,2006/11/1,4:37:00,33-53.6600N,137-10.5600E,167,22.093,33.9689
26,2006/11/1,4:38:00,33-53.4300N,137-10.6200E,167,22.1,33.9607
27,2006/11/1,4:39:00,33-53.1900N,137-10.6900E,167,22.113,33.9658
28,2006/11/1,4:40:00,33-52.9300N,137-10.7600E,166,22.112,33.9503
29,2006/11/1,4:41:00,33-52.7000N,137-10.8300E,166,22.085,33.9802
30,2006/11/1,4:42:00,33-52.4600N,137-10.8900E,166,22.066,34.0026
31,2006/11/1,4:43:00,33-52.2300N,137-10.9600E,167,22.069,34.0092
32,2006/11/1,4:44:00,33-52.0000N,137-11.0200E,166,22.089,33.9907
33,2006/11/1,4:45:00,33-51.7600N,137-11.0900E,166,22.105,33.9745
34,2006/11/1,4:46:00,33-51.5300N,137-11.1600E,166,22.081,34.0173
35,2006/11/1,4:47:00,33-51.3000N,137-11.2300E,166,22.079,34.0353
36,2006/11/1,4:48:00,33-51.0600N,137-11.2900E,166,22.088,34.0357
37,2006/11/1,4:49:00,33-50.8300N,137-11.3600E,166,22.127,34.0312
38,2006/11/1,4:50:00,33-50.6100N,137-11.4300E,165,22.19,34.0275
39,2006/11/1,4:51:00,33-50.3800N,137-11.5000E,165,22.215,34.0457
40,2006/11/1,4:52:00,33-50.1500N,137-11.5700E,165,22.24,34.0658
41,2006/11/1,4:53:00,33-49.9200N,137-11.6400E,165,22.257,34.086
42,2006/11/1,4:54:00,33-49.6900N,137-11.7200E,165,22.3,34.097
43,2006/11/1,4:55:00,33-49.4600N,137-11.7900E,165,22.362,34.1022
44,2006/11/1,4:56:00,33-49.2400N,137-11.8600E,164,22.346,34.1218
45,2006/11/1,4:57:00,33-49.0100N,137-11.9300E,165,22.252,34.145
46,2006/11/1,4:58:00,33-48.7800N,137-12.0000E,166,22.208,34.1545
47,2006/11/1,4:59:00,33-48.5500N,137-12.0700E,167,22.205,34.1287
48,2006/11/1,5:00:00,33-48.3200N,137-12.1300E,167,22.209,34.0996
49,2006/11/1,5:01:00,33-48.0900N,137-12.1900E,167,22.213,34.0898
50,2006/11/1,5:02:00,33-47.8400N,137-12.2500E,168,22.228,34.0879
51,2006/11/1,5:03:00,33-47.6100N,137-12.3000E,168,22.24,34.0901
52,2006/11/1,5:04:00,33-47.3800N,137-12.3600E,168,22.26,---
53,2006/11/1,5:05:00,33-47.1500N,137-12.4200E,168,22.276,34.0931
54,2006/11/1,5:06:00,33-46.9100N,137-12.4800E,168,22.219,34.0974
55,2006/11/1,5:07:00,33-46.6900N,137-12.5400E,167,22.18,34.0995
56,2006/11/1,5:08:00,33-46.4600N,137-12.6000E,167,22.179,34.076
57,2006/11/1,5:09:00,33-46.2200N,137-12.6600E,168,22.15,34.0486
58,2006/11/1,5:10:00,33-45.9900N,137-12.7100E,169,22.142,34.0252
59,2006/11/1,5:11:00,33-45.7600N,137-12.7700E,168,22.166,34.0051
60,2006/11/1,5:12:00,33-45.5200N,137-12.8200E,169,22.171,---
61,2006/11/1,5:13:00,33-45.2900N,137-12.8800E,168,22.167,33.9786
62,2006/11/1,5:14:00,33-45.0600N,137-12.9400E,167,22.806,33.9696
63,2006/11/1,5:15:00,33-44.8300N,137-13.0000E,168,23.125,33.9609
64,2006/11/1,5:16:00,33-44.6100N,137-13.0500E,170,23.414,34.0135
65,2006/11/1,5:17:00,33-44.3700N,137-13.1000E,169,23.581,34.1046
66,2006/11/1,5:18:00,33-44.1400N,137-13.1400E,169,23.7,34.1605
67,2006/11/1,5:19:00,33-43.9100N,137-13.1900E,170,23.768,34.1946
68,2006/11/1,5:20:00,33-43.6800N,137-13.2400E,170,23.821,34.2197
69,2006/11/1,5:21:00,33-43.4500N,137-13.2800E,170,23.882,34.2331
70,2006/11/1,5:22:00,33-43.2200N,137-13.3300E,169,23.934,34.2342
71,2006/11/1,5:23:00,33-42.9900N,137-13.3800E,169,23.967,34.2401
72,2006/11/1,5:24:00,33-42.7400N,137-13.4400E,168,23.962,34.252
73,2006/11/1,5:25:00,33-42.5100N,137-13.5000E,168,24.003,34.2413
74,2006/11/1,5:26:00,33-42.2800N,137-13.5500E,169,24.141,34.2536
75,2006/11/1,5:27:00,33-42.0400N,137-13.6100E,169,24.215,34.2499
76,2006/11/1,5:28:00,33-41.8100N,137-13.6500E,169,24.281,34.2482
77,2006/11/1,5:29:00,33-41.5700N,137-13.7100E,169,24.362,34.2522
78,2006/11/1,5:30:00,33-41.3400N,137-13.7600E,170,24.43,34.2564
79,2006/11/1,5:31:00,33-41.1100N,137-13.8000E,170,24.521,34.2586
80,2006/11/1,5:32:00,33-40.8700N,137-13.8500E,170,24.586,34.2627
81,2006/11/1,5:33:00,33-40.6400N,137-13.9000E,169,24.629,34.2639
82,2006/11/1,5:34:00,33-40.4100N,137-13.9500E,170,24.659,34.2702
83,2006/11/1,5:35:00,33-40.1700N,137-14.0000E,170,24.693,34.262
84,2006/11/1,5:36:00,33-39.9400N,137-14.0500E,170,24.732,34.2747
85,2006/11/1,5:37:00,33-39.7100N,137-14.0900E,170,24.764,34.2706
86,2006/11/1,5:38:00,33-39.4700N,137-14.1400E,170,24.769,34.2828
87,2006/11/1,5:39:00,33-39.2400N,137-14.1900E,168,24.786,34.2985
88,2006/11/1,5:40:00,33-39.0000N,137-14.2500E,169,24.836,34.313
89,2006/11/1,5:41:00,33-38.7600N,137-14.3000E,169,24.897,34.3059
90,2006/11/1,5:42:00,33-38.5300N,137-14.3500E,169,24.911,34.3224
91,2006/11/1,5:43:00,33-38.2800N,137-14.4100E,169,24.841,34.2805
92,2006/11/1,5:44:00,33-38.0500N,137-14.4600E,169,24.758,34.3201
93,2006/11/1,5:45:00,33-37.8100N,137-14.5100E,169,24.661,34.2953
94,2006/11/1,5:46:00,33-37.5500N,137-14.5700E,168,24.636,34.2477
95,2006/11/1,5:47:00,33-37.3000N,137-14.6300E,169,24.667,34.1981
96,2006/11/1,5:48:00,33-37.0700N,137-14.6800E,168,24.688,34.1544
97,2006/11/1,5:49:00,33-36.8300N,137-14.7300E,169,24.708,34.114
98,2006/11/1,5:50:00,33-36.5900N,137-14.7800E,170,24.724,34.1051
99,2006/11/1,5:51:00,33-36.3500N,137-14.8300E,170,24.741,34.1021
100,2006/11/1,5:52:00,33-36.1000N,137-14.8800E,171,24.746,34.0985
101,2006/11/1,5:53:00,33-35.8600N,137-14.9200E,172,24.765,34.0891
102,2006/11/1,5:54:00,33-35.6200N,137-14.9600E,172,24.782,34.0834
103,2006/11/1,5:55:00,33-35.3800N,137-14.9900E,173,24.81,34.0754
104,2006/11/1,5:56:00,33-35.1400N,137-15.0300E,173,24.831,34.0853
105,2006/11/1,5:57:00,33-34.8900N,137-15.0600E,173,24.855,34.0912
106,2006/11/1,5:58:00,33-34.6500N,137-15.1000E,173,24.867,34.0979
107,2006/11/1,5:59:00,33-34.4000N,137-15.1300E,173,24.886,34.1069
108,2006/11/1,6:00:00,33-34.1600N,137-15.1700E,171,24.918,34.1141
109,2006/11/1,6:01:00,33-33.9100N,137-15.2200E,170,24.959,34.1234
110,2006/11/1,6:02:00,33-33.6600N,137-15.2700E,170,25.012,34.1225
111,2006/11/1,6:03:00,33-33.4200N,137-15.3300E,169,25.081,34.1454
112,2006/11/1,6:04:00,33-33.1800N,137-15.3800E,170,25.121,34.1636
113,2006/11/1,6:05:00,33-32.9300N,137-15.4300E,169,25.161,34.1941
114,2006/11/1,6:06:00,33-32.6900N,137-15.4800E,170,25.185,34.2039
115,2006/11/1,6:07:00,33-32.4400N,137-15.5400E,169,25.207,34.2155
116,2006/11/1,6:08:00,33-32.1800N,137-15.5900E,169,25.233,34.2335
117,2006/11/1,6:09:00,33-31.9400N,137-15.6500E,169,25.265,34.2473
118,2006/11/1,6:10:00,33-31.6900N,137-15.7000E,169,25.289,34.2593
119,2006/11/1,6:11:00,33-31.4500N,137-15.7600E,169,25.335,34.2801
120,2006/11/1,6:12:00,33-31.2100N,137-15.8100E,169,25.384,34.2902
121,2006/11/1,6:13:00,33-30.9600N,137-15.8600E,169,25.407,34.3063
122,2006/11/1,6:14:00,33-30.7200N,137-15.9200E,169,25.422,---
123,2006/11/1,6:15:00,33-30.4800N,137-15.9700E,169,25.433,34.3403
124,2006/11/1,6:16:00,33-30.2400N,137-16.0200E,170,25.455,34.3448
125,2006/11/1,6:17:00,33-29.9900N,137-16.0700E,169,25.481,34.3493
126,2006/11/1,6:18:00,33-29.7500N,137-16.1300E,169,25.491,34.3528
127,2006/11/1,6:19:00,33-29.5100N,137-16.1800E,169,25.512,34.3478
128,2006/11/1,6:20:00,33-29.2700N,137-16.2300E,169,25.532,34.3639
129,2006/11/1,6:21:00,33-29.0300N,137-16.2800E,169,25.538,34.3658
130,2006/11/1,6:22:00,33-28.7900N,137-16.3400E,169,25.557,34.3675
131,2006/11/1,6:23:00,33-28.5500N,137-16.3900E,169,25.582,34.3644
132,2006/11/1,6:24:00,33-28.3100N,137-16.4400E,169,25.615,34.3663
133,2006/11/1,6:25:00,33-28.0700N,137-16.5000E,169,25.654,34.3742
134,2006/11/1,6:26:00,33-27.8300N,137-16.5600E,169,25.689,34.3843
135,2006/11/1,6:27:00,33-27.5900N,137-16.6100E,169,25.702,34.3918
136,2006/11/1,6:28:00,33-27.3500N,137-16.6700E,169,25.703,34.4107
137,2006/11/1,6:29:00,33-27.0900N,137-16.7300E,169,25.692,34.4231
138,2006/11/1,6:30:00,33-26.8500N,137-16.7800E,169,25.68,34.4318
139,2006/11/1,6:31:00,33-26.6100N,137-16.8400E,168,25.67,34.4309
140,2006/11/1,6:32:00,33-26.3700N,137-16.9000E,168,25.661,34.4283
141,2006/11/1,6:33:00,33-26.1300N,137-16.9600E,168,25.659,34.4052
142,2006/11/1,6:34:00,33-25.8900N,137-17.0100E,169,25.675,34.4098
143,2006/11/1,6:35:00,33-25.6500N,137-17.0700E,168,25.676,34.4093
144,2006/11/1,6:36:00,33-25.4100N,137-17.1300E,168,25.678,34.4112
145,2006/11/1,6:37:00,33-25.1700N,137-17.1800E,168,25.675,34.3963
146,2006/11/1,6:38:00,33-24.9300N,137-17.2400E,168,25.675,34.4085
147,2006/11/1,6:39:00,33-24.6900N,137-17.3000E,168,25.708,34.4052
148,2006/11/1,6:40:00,33-24.4400N,137-17.3600E,168,25.755,34.4063
149,2006/11/1,6:41:00,33-24.2100N,137-17.4100E,169,25.807,34.4051
150,2006/11/1,6:42:00,33-23.9700N,137-17.4600E,170,25.845,34.4064
151,2006/11/1,6:43:00,33-23.7300N,137-17.5100E,170,25.881,34.4171
152,2006/11/1,6:44:00,33-23.4900N,137-17.5600E,170,25.924,34.4249
153,2006/11/1,6:45:00,33-23.2400N,137-17.6000E,170,25.954,34.4343
154,2006/11/1,6:46:00,33-23.0000N,137-17.6500E,170,25.97,34.4449
155,2006/11/1,6:47:00,33-22.7700N,137-17.7000E,170,25.962,34.4471
156,2006/11/1,6:48:00,33-22.5300N,137-17.7400E,170,25.947,34.4637
157,2006/11/1,6:49:00,33-22.2900N,137-17.7900E,171,25.934,34.4659
158,2006/11/1,6:50:00,33-22.0300N,137-17.8400E,170,25.92,34.4648
159,2006/11/1,6:51:00,33-21.7900N,137-17.8800E,170,25.901,34.4581
160,2006/11/1,6:52:00,33-21.5600N,137-17.9300E,170,25.874,34.4627
161,2006/11/1,6:53:00,33-21.3200N,137-17.9800E,170,25.863,34.4634
162,2006/11/1,6:54:00,33-21.0800N,137-18.0300E,170,25.865,34.4607
163,2006/11/1,6:55:00,33-20.8400N,137-18.0800E,170,25.872,34.4416
164,2006/11/1,6:56:00,33-20.6100N,137-18.1300E,170,25.887,34.4499
165,2006/11/1,6:57:00,33-20.3700N,137-18.1800E,170,25.898,34.4284
166,2006/11/1,6:58:00,33-20.1300N,137-18.2300E,169,25.9,34.4362
167,2006/11/1,6:59:00,33-19.8900N,137-18.2800E,169,25.903,34.4664
168,2006/11/1,7:00:00,33-19.6500N,137-18.3300E,169,25.891,34.4935
169,2006/11/1,7:01:00,33-19.4100N,137-18.3800E,170,25.883,34.5057
170,2006/11/1,7:02:00,33-19.1800N,137-18.4300E,169,25.882,34.4955
171,2006/11/1,7:03:00,33-18.9300N,137-18.4800E,170,25.887,34.5089
172,2006/11/1,7:04:00,33-18.7000N,137-18.5300E,169,25.889,34.5095
173,2006/11/1,7:05:00,33-18.4600N,137-18.5800E,169,25.894,34.5095
174,2006/11/1,7:06:00,33-18.2200N,137-18.6300E,170,25.886,34.5113
175,2006/11/1,7:07:00,33-17.9800N,137-18.6900E,169,25.88,34.5146
176,2006/11/1,7:08:00,33-17.7400N,137-18.7400E,169,25.885,34.5115
177,2006/11/1,7:09:00,33-17.5000N,137-18.7900E,169,25.882,34.5117
178,2006/11/1,7:10:00,33-17.2600N,137-18.8500E,169,25.87,34.5101
179,2006/11/1,7:11:00,33-17.0000N,137-18.9000E,169,25.844,34.5098
180,2006/11/1,7:12:00,33-16.7700N,137-18.9500E,169,25.83,34.5061
181,2006/11/1,7:13:00,33-16.5300N,137-19.0000E,170,25.82,34.5007
182,2006/11/1,7:14:00,33-16.2900N,137-19.0600E,169,25.811,34.4942
183,2006/11/1,7:15:00,33-16.0500N,137-19.1100E,169,25.807,34.4858
184,2006/11/1,7:16:00,33-15.8100N,137-19.1700E,169,25.812,34.484
185,2006/11/1,7:17:00,33-15.5800N,137-19.2200E,169,25.818,34.4807
186,2006/11/1,7:18:00,33-15.3400N,137-19.2700E,169,25.832,34.4778
187,2006/11/1,7:19:00,33-15.1000N,137-19.3200E,169,25.861,34.473
188,2006/11/1,7:20:00,33-14.8700N,137-19.3800E,168,25.884,34.4797
189,2006/11/1,7:21:00,33-14.6300N,137-19.4300E,169,25.898,34.4909
190,2006/11/1,7:22:00,33-14.4000N,137-19.4900E,168,25.904,34.4995
191,2006/11/1,7:23:00,33-14.1600N,137-19.5400E,169,25.908,34.5086
192,2006/11/1,7:24:00,33-13.9200N,137-19.5900E,169,25.909,34.5071
193,2006/11/1,7:25:00,33-13.6900N,137-19.6400E,169,25.907,34.5077
194,2006/11/1,7:26:00,33-13.4500N,137-19.6900E,169,25.909,34.5101
195,2006/11/1,7:27:00,33-13.2100N,137-19.7400E,170,25.911,34.5084
196,2006/11/1,7:28:00,33-12.9800N,137-19.8000E,169,25.92,34.5078
197,2006/11/1,7:29:00,33-12.7400N,137-19.8500E,169,25.942,34.505
198,2006/11/1,7:30:00,33-12.5000N,137-19.9000E,169,25.951,34.5051
199,2006/11/1,7:31:00,33-12.2700N,137-19.9500E,169,25.958,34.5089
200,2006/11/1,7:32:00,33-12.0100N,137-20.0100E,169,25.964,34.5117
201,2006/11/1,7:33:00,33-11.7700N,137-20.0600E,169,25.966,34.5115
202,2006/11/1,7:34:00,33-11.5300N,137-20.1200E,169,25.979,34.51
203,2006/11/1,7:35:00,33-11.3000N,137-20.1700E,168,25.994,34.5121
204,2006/11/1,7:36:00,33-11.0600N,137-20.2200E,170,26.001,34.5108
205,2006/11/1,7:37:00,33-10.8200N,137-20.2700E,170,26.008,34.5096
206,2006/11/1,7:38:00,33-10.5800N,137-20.3100E,170,26.021,34.5112
207,2006/11/1,7:39:00,33-10.3400N,137-20.3600E,171,26.028,34.5102
208,2006/11/1,7:40:00,33-10.1000N,137-20.4000E,170,26.032,34.5104
209,2006/11/1,7:41:00,33-09.8600N,137-20.4500E,170,26.034,34.5104
210,2006/11/1,7:42:00,33-09.6300N,137-20.5000E,170,26.03,34.5091
211,2006/11/1,7:43:00,33-09.3900N,137-20.5400E,171,26.024,34.5066
212,2006/11/1,7:44:00,33-09.1500N,137-20.5900E,171,26.02,34.5078
213,2006/11/1,7:45:00,33-08.9100N,137-20.6300E,171,26.016,34.5049
214,2006/11/1,7:46:00,33-08.6700N,137-20.6700E,171,26.015,34.503
215,2006/11/1,7:47:00,33-08.4400N,137-20.7100E,171,26.011,34.4945
216,2006/11/1,7:48:00,33-08.1900N,137-20.7600E,171,26.009,34.5068
217,2006/11/1,7:49:00,33-07.9500N,137-20.8000E,171,25.999,34.5115
218,2006/11/1,7:50:00,33-07.7100N,137-20.8400E,171,25.995,34.5125
219,2006/11/1,7:51:00,33-07.4800N,137-20.8800E,171,25.985,34.5146
220,2006/11/1,7:52:00,33-07.2400N,137-20.9200E,171,25.983,34.5195
221,2006/11/1,7:53:00,33-06.9700N,137-20.9600E,172,25.985,34.5238
222,2006/11/1,7:54:00,33-06.7400N,137-21.0000E,172,25.976,34.5248
223,2006/11/1,7:55:00,33-06.4900N,137-21.0400E,172,25.972,34.5275
224,2006/11/1,7:56:00,33-06.2600N,137-21.0800E,171,25.97,34.5304
225,2006/11/1,7:57:00,33-06.0200N,137-21.1200E,171,25.962,34.5295
226,2006/11/1,7:58:00,33-05.7800N,137-21.1600E,172,25.943,34.5295
227,2006/11/1,7:59:00,33-05.5400N,137-21.1900E,172,25.927,34.5247
228,2006/11/1,8:00:00,33-05.3000N,137-21.2300E,172,25.917,---
229,2006/11/1,8:01:00,33-05.0600N,137-21.2700E,172,25.916,34.5143
230,2006/11/1,8:02:00,33-04.8200N,137-21.3100E,172,25.912,34.5093
231,2006/11/1,8:03:00,33-04.5800N,137-21.3400E,172,25.902,34.5095
232,2006/11/1,8:04:00,33-04.3400N,137-21.3800E,173,25.899,34.5109
233,2006/11/1,8:05:00,33-04.1000N,137-21.4200E,172,25.897,34.5123
234,2006/11/1,8:06:00,33-03.8600N,137-21.4500E,172,25.89,34.514
235,2006/11/1,8:07:00,33-03.6200N,137-21.4900E,173,25.884,34.5212
236,2006/11/1,8:08:00,33-03.3800N,137-21.5200E,172,25.881,34.5234
237,2006/11/1,8:09:00,33-03.1400N,137-21.5600E,172,25.875,34.5272
238,2006/11/1,8:10:00,33-02.9000N,137-21.5900E,173,25.875,34.5352
239,2006/11/1,8:11:00,33-02.6600N,137-21.6200E,173,25.875,34.5401
240,2006/11/1,8:12:00,33-02.4200N,137-21.6600E,173,25.875,34.5437
241,2006/11/1,8:13:00,33-02.1700N,137-21.6900E,173,25.876,34.5447
242,2006/11/1,8:14:00,33-01.9300N,137-21.7300E,173,25.873,34.542
243,2006/11/1,8:15:00,33-01.6900N,137-21.7600E,173,25.87,34.5431
244,2006/11/1,8:16:00,33-01.4500N,137-21.7900E,172,25.869,34.5431
245,2006/11/1,8:17:00,33-01.2100N,137-21.8400E,171,25.86,34.5386
246,2006/11/1,8:18:00,33-00.9800N,137-21.8800E,171,25.856,34.5377
247,2006/11/1,8:19:00,33-00.7400N,137-21.9200E,171,25.851,34.5337
248,2006/11/1,8:20:00,33-00.5000N,137-21.9600E,171,25.851,34.5301
249,2006/11/1,8:21:00,33-00.2600N,137-22.0000E,172,25.843,34.5273
250,2006/11/1,8:22:00,33-00.0200N,137-22.0400E,172,25.842,34.5259
251,2006/11/1,8:23:00,32-59.7900N,137-22.0800E,172,25.839,34.5211
252,2006/11/1,8:24:00,32-59.5500N,137-22.1100E,172,25.84,34.5205
253,2006/11/1,8:25:00,32-59.3100N,137-22.1500E,172,25.843,34.5165
254,2006/11/1,8:26:00,32-59.0700N,137-22.1900E,172,25.848,34.5144
255,2006/11/1,8:27:00,32-58.8400N,137-22.2300E,172,25.853,34.5144
256,2006/11/1,8:28:00,32-58.6000N,137-22.2700E,172,25.853,34.5144
257,2006/11/1,8:29:00,32-58.3600N,137-22.3100E,172,25.848,34.5133
258,2006/11/1,8:30:00,32-58.1200N,137-22.3400E,172,25.845,34.5103
259,2006/11/1,8:31:00,32-57.8800N,137-22.3800E,173,25.84,34.5061
260,2006/11/1,8:32:00,32-57.6400N,137-22.4100E,172,25.839,34.5031
261,2006/11/1,8:33:00,32-57.4000N,137-22.4500E,173,25.833,34.5021
262,2006/11/1,8:34:00,32-57.1600N,137-22.4800E,173,25.832,34.5056
263,2006/11/1,8:35:00,32-56.9000N,137-22.5200E,173,25.817,34.5059
264,2006/11/1,8:36:00,32-56.6600N,137-22.5500E,173,25.799,34.5013
265,2006/11/1,8:37:00,32-56.4200N,137-22.5800E,172,25.789,34.5073
266,2006/11/1,8:38:00,32-56.1900N,137-22.6200E,172,25.784,34.5042
267,2006/11/1,8:39:00,32-55.9400N,137-22.6600E,172,25.776,34.5023
268,2006/11/1,8:40:00,32-55.7100N,137-22.6900E,173,25.767,34.4962
269,2006/11/1,8:41:00,32-55.4600N,137-22.7200E,173,25.764,34.4898
270,2006/11/1,8:42:00,32-55.2300N,137-22.7600E,172,25.767,34.4795
271,2006/11/1,8:43:00,32-54.9900N,137-22.8000E,171,25.765,34.4834
272,2006/11/1,8:44:00,32-54.7500N,137-22.8400E,171,25.769,34.4817
273,2006/11/1,8:45:00,32-54.5100N,137-22.8900E,171,25.792,34.48
274,2006/11/1,8:46:00,32-54.2700N,137-22.9300E,171,25.802,34.4851
275,2006/11/1,8:47:00,32-54.0400N,137-22.9800E,171,25.804,34.4857
276,2006/11/1,8:48:00,32-53.7900N,137-23.0200E,171,25.812,34.4895
277,2006/11/1,8:49:00,32-53.5600N,137-23.0600E,171,25.819,34.4901
278,2006/11/1,8:50:00,32-53.3100N,137-23.1000E,172,25.829,34.4877
279,2006/11/1,8:51:00,32-53.0800N,137-23.1400E,171,25.827,34.4861
280,2006/11/1,8:52:00,32-52.8300N,137-23.1800E,172,25.822,34.4864
281,2006/11/1,8:53:00,32-52.5900N,137-23.2100E,173,25.808,34.4835
282,2006/11/1,8:54:00,32-52.3500N,137-23.2500E,172,25.79,34.4815
283,2006/11/1,8:55:00,32-52.1100N,137-23.2900E,171,25.759,34.4835
284,2006/11/1,8:56:00,32-51.8500N,137-23.3400E,170,25.741,34.4784
285,2006/11/1,8:57:00,32-51.6100N,137-23.3900E,170,25.748,34.4714
286,2006/11/1,8:58:00,32-51.3700N,137-23.4500E,169,25.757,34.4702
287,2006/11/1,8:59:00,32-51.1300N,137-23.5000E,170,25.758,34.4706
288,2006/11/1,9:00:00,32-50.8900N,137-23.5500E,170,25.752,34.4825
289,2006/11/1,9:01:00,32-50.6500N,137-23.5900E,170,25.742,34.4883
290,2006/11/1,9:02:00,32-50.4100N,137-23.6400E,170,25.721,34.4924
291,2006/11/1,9:03:00,32-50.1600N,137-23.6900E,170,25.697,34.4971
292,2006/11/1,9:04:00,32-49.9200N,137-23.7400E,170,25.673,34.4995
293,2006/11/1,9:05:00,32-49.6800N,137-23.7900E,170,25.649,34.5004
294,2006/11/1,9:06:00,32-49.4300N,137-23.8300E,171,25.611,34.5036
295,2006/11/1,9:07:00,32-49.1900N,137-23.8700E,171,25.569,34.5055
296,2006/11/1,9:08:00,32-48.9400N,137-23.9200E,171,25.522,34.5058
297,2006/11/1,9:09:00,32-48.7000N,137-23.9600E,171,25.441,34.5065
298,2006/11/1,9:10:00,32-48.4600N,137-24.0200E,168,25.341,34.5086
299,2006/11/1,9:11:00,32-48.2100N,137-24.0700E,169,25.317,34.509
300,2006/11/1,9:12:00,32-47.9700N,137-24.1200E,170,25.317,34.5414
301,2006/11/1,9:13:00,32-47.7300N,137-24.1800E,170,25.289,34.6059
302,2006/11/1,9:14:00,32-47.4900N,137-24.2200E,170,25.28,---
303,2006/11/1,9:15:00,32-47.2400N,137-24.2700E,171,25.277,34.6676
304,2006/11/1,9:16:00,32-46.9800N,137-24.3200E,169,25.267,34.6654
305,2006/11/1,9:17:00,32-46.7400N,137-24.3700E,168,25.265,34.6622
306,2006/11/1,9:18:00,32-46.5100N,137-24.4300E,167,25.281,34.6628
307,2006/11/1,9:19:00,32-46.2700N,137-24.4900E,167,25.297,34.6655
308,2006/11/1,9:20:00,32-46.0300N,137-24.5600E,167,25.314,34.6774
309,2006/11/1,9:21:00,32-45.7900N,137-24.6300E,165,25.141,34.6982
310,2006/11/1,9:22:00,32-45.5600N,137-24.6900E,166,25.16,34.7122
311,2006/11/1,9:23:00,32-45.3200N,137-24.7600E,166,25.172,34.672
312,2006/11/1,9:24:00,32-45.0800N,137-24.8300E,166,25.144,34.5964
313,2006/11/1,9:25:00,32-44.8500N,137-24.9000E,165,25.164,34.5678
314,2006/11/1,9:26:00,32-44.6200N,137-24.9700E,166,25.193,34.5533
315,2006/11/1,9:27:00,32-44.3800N,137-25.0400E,165,25.211,34.537
316,2006/11/1,9:28:00,32-44.1400N,137-25.1100E,165,25.239,34.5314
317,2006/11/1,9:29:00,32-43.9100N,137-25.1800E,166,25.27,34.5322
318,2006/11/1,9:30:00,32-43.6800N,137-25.2500E,165,25.288,34.5326
319,2006/11/1,9:31:00,32-43.4400N,137-25.3200E,164,25.289,34.5354
320,2006/11/1,9:32:00,32-43.2100N,137-25.3900E,165,25.29,34.5394
321,2006/11/1,9:33:00,32-42.9700N,137-25.4600E,165,25.288,34.539
322,2006/11/1,9:34:00,32-42.7300N,137-25.5400E,165,25.283,34.5359
323,2006/11/1,9:35:00,32-42.5000N,137-25.6100E,165,25.272,34.5345
324,2006/11/1,9:36:00,32-42.2600N,137-25.6800E,165,25.271,34.5198
325,2006/11/1,9:37:00,32-42.0300N,137-25.7500E,165,25.263,34.5322
326,2006/11/1,9:38:00,32-41.7700N,137-25.8400E,164,25.259,34.5331
327,2006/11/1,9:39:00,32-41.5400N,137-25.9100E,165,25.321,34.5394
328,2006/11/1,9:40:00,32-41.3000N,137-25.9800E,165,25.352,34.5433
329,2006/11/1,9:41:00,32-41.0700N,137-26.0600E,165,25.378,34.5507
330,2006/11/1,9:42:00,32-40.8400N,137-26.1300E,165,25.39,34.5636
331,2006/11/1,9:43:00,32-40.6000N,137-26.2000E,165,25.391,34.5719
332,2006/11/1,9:44:00,32-40.3700N,137-26.2800E,164,25.386,34.58
333,2006/11/1,9:45:00,32-40.1300N,137-26.3500E,164,25.371,34.5899
334,2006/11/1,9:46:00,32-39.9000N,137-26.4300E,164,25.349,34.5981
335,2006/11/1,9:47:00,32-39.6600N,137-26.5000E,164,25.341,34.6093
336,2006/11/1,9:48:00,32-39.4300N,137-26.5700E,164,25.34,34.6215
337,2006/11/1,9:49:00,32-39.2000N,137-26.6500E,164,25.328,34.6297
338,2006/11/1,9:50:00,32-38.9700N,137-26.7200E,165,25.315,34.6369
339,2006/11/1,9:51:00,32-38.7400N,137-26.7900E,165,25.264,34.642
340,2006/11/1,9:52:00,32-38.5000N,137-26.8600E,167,25.252,34.6449
341,2006/11/1,9:53:00,32-38.2700N,137-26.9100E,168,25.225,34.6507
342,2006/11/1,9:54:00,32-38.0300N,137-26.9600E,169,25.201,34.6455
343,2006/11/1,9:55:00,32-37.7900N,137-27.0100E,170,25.189,34.6459
344,2006/11/1,9:56:00,32-37.5600N,137-27.0500E,170,25.158,34.641
345,2006/11/1,9:57:00,32-37.3200N,137-27.1000E,170,24.978,34.6384
346,2006/11/1,9:58:00,32-37.0900N,137-27.1500E,170,24.937,34.6369
347,2006/11/1,9:59:00,32-36.8300N,137-27.2000E,170,24.896,34.6127
348,2006/11/1,10:00:00,32-36.5900N,137-27.2500E,169,24.892,34.5818
349,2006/11/1,10:01:00,32-36.3600N,137-27.3000E,170,24.895,34.5558
350,2006/11/1,10:02:00,32-36.1200N,137-27.3500E,169,24.906,34.5436
351,2006/11/1,10:03:00,32-35.8800N,137-27.4000E,170,24.905,34.5371
352,2006/11/1,10:04:00,32-35.6500N,137-27.4400E,170,24.929,34.5374
353,2006/11/1,10:05:00,32-35.4100N,137-27.4900E,170,24.969,34.5362
354,2006/11/1,10:06:00,32-35.1800N,137-27.5400E,170,24.964,34.5382
355,2006/11/1,10:07:00,32-34.9400N,137-27.5800E,170,24.965,34.5471
356,2006/11/1,10:08:00,32-34.7000N,137-27.6300E,170,24.959,34.5607
357,2006/11/1,10:09:00,32-34.4600N,137-27.6700E,170,24.939,34.561
358,2006/11/1,10:10:00,32-34.2300N,137-27.7200E,170,24.938,34.5573
359,2006/11/1,10:11:00,32-33.9900N,137-27.7600E,170,24.924,34.557
360,2006/11/1,10:12:00,32-33.7600N,137-27.8100E,170,24.925,34.5508
361,2006/11/1,10:13:00,32-33.5200N,137-27.8500E,170,24.935,34.5447
362,2006/11/1,10:14:00,32-33.2800N,137-27.9000E,171,24.949,34.5444
363,2006/11/1,10:15:00,32-33.0500N,137-27.9400E,170,24.986,34.5421
364,2006/11/1,10:16:00,32-32.8100N,137-27.9900E,170,24.936,34.5454
365,2006/11/1,10:17:00,32-32.5800N,137-28.0400E,170,24.882,34.5527
366,2006/11/1,10:18:00,32-32.3400N,137-28.0800E,170,24.835,34.5508
367,2006/11/1,10:19:00,32-32.0900N,137-28.1300E,170,24.783,34.5111
368,2006/11/1,10:20:00,32-31.8600N,137-28.1800E,170,24.754,34.5024
369,2006/11/1,10:21:00,32-31.6200N,137-28.2300E,169,24.721,34.4786
370,2006/11/1,10:22:00,32-31.3900N,137-28.2800E,169,24.682,34.4559
371,2006/11/1,10:23:00,32-31.1500N,137-28.3300E,169,24.642,34.44
372,2006/11/1,10:24:00,32-30.9200N,137-28.3800E,169,24.622,34.4215
373,2006/11/1,10:25:00,32-30.6900N,137-28.4300E,168,24.614,34.4032
374,2006/11/1,10:26:00,32-30.4400N,137-28.4800E,170,24.616,34.3892
375,2006/11/1,10:27:00,32-30.2100N,137-28.5200E,170,24.617,34.3809
376,2006/11/1,10:28:00,32-29.9700N,137-28.5700E,169,24.616,34.3808
377,2006/11/1,10:29:00,32-29.7400N,137-28.6200E,170,24.617,34.3781
378,2006/11/1,10:30:00,32-29.5000N,137-28.6700E,170,24.614,34.3766
379,2006/11/1,10:31:00,32-29.2600N,137-28.7100E,170,24.613,34.3778